TimePST,TemperatureF,Dew PointF,Humidity,Sea Level PressureIn,VisibilityMPH,Wind Direction,Wind SpeedMPH,Gust SpeedMPH,PrecipitationIn,Events,Conditions,WindDirDegrees,DateUTC
12:00 AM,40.8,36.3,84,30.06,-9999.0,WNW,26.5,-,N/A,,Unknown,300,2013-01-28 08:00:00
1:00 AM,40.3,36.5,86,30.06,-9999.0,WNW,23.0,-,N/A,,Unknown,300,2013-01-28 09:00:00
2:00 AM,40.5,36.9,87,30.06,-9999.0,WNW,20.7,-,0.02,,Unknown,300,2013-01-28 10:00:00
3:00 AM,40.8,37.0,86,30.06,-9999.0,WNW,17.3,-,0.02,,Unknown,300,2013-01-28 11:00:00
4:00 AM,41,37,82,30.05,,WNW,17.3,,,,,290,2013-01-28 12:00:00
4:00 AM,40.6,37.4,88,30.05,-9999.0,WNW,17.3,-,0.03,,Unknown,290,2013-01-28 12:00:00
5:00 AM,40.3,37.6,90,30.05,-9999.0,West,13.8,-,0.04,,Unknown,280,2013-01-28 13:00:00
6:00 AM,40.3,37.2,89,30.04,-9999.0,NW,5.8,-,0.05,,Unknown,310,2013-01-28 14:00:00
7:00 AM,39.9,37.8,92,30.03,-9999.0,North,5.8,-,0.09,,Unknown,350,2013-01-28 15:00:00
8:00 AM,41.2,39.2,93,30.02,-9999.0,WNW,20.7,-,0.08,,Unknown,290,2013-01-28 16:00:00
9:00 AM,41.5,39.2,91,30.01,-9999.0,WNW,24.2,-,0.05,,Unknown,290,2013-01-28 17:00:00
10:00 AM,42,39,85,30.02,,WNW,27.6,,,,,290,2013-01-28 18:00:00
10:00 AM,42.1,39.0,89,30.02,-9999.0,WNW,27.6,33.4,0.04,,Unknown,290,2013-01-28 18:00:00
11:00 AM,41.4,37.9,88,30.02,-9999.0,WNW,25.3,-,0.07,,Unknown,300,2013-01-28 19:00:00
12:00 PM,42.1,39.2,90,30.03,-9999.0,WNW,26.5,33.4,0.05,,Unknown,290,2013-01-28 20:00:00
1:00 PM,41.9,39.0,90,30.03,-9999.0,WNW,26.5,-,0.04,,Unknown,300,2013-01-28 21:00:00
2:00 PM,41.4,39.2,92,30.03,-9999.0,WNW,26.5,33.4,0.05,,Unknown,290,2013-01-28 22:00:00
3:00 PM,41.5,38.8,90,30.03,-9999.0,WNW,29.9,-,0.04,,Unknown,300,2013-01-28 23:00:00
4:00 PM,42,40,90,30.04,,WNW,31.1,,,,,300,2013-01-29 00:00:00
4:00 PM,42.1,40.1,93,30.04,-9999.0,WNW,31.1,-,0.02,,Unknown,300,2013-01-29 00:00:00
5:00 PM,42.4,40.3,92,30.04,-9999.0,WNW,28.8,-,0.02,,Unknown,300,2013-01-29 01:00:00
6:00 PM,42.8,41.4,95,30.06,-9999.0,NW,24.2,-,0.02,,Unknown,310,2013-01-29 02:00:00
7:00 PM,43.2,41.9,95,30.06,-9999.0,NW,24.2,-,0.02,,Unknown,310,2013-01-29 03:00:00
8:00 PM,44.1,42.3,93,30.06,-9999.0,WNW,29.9,36.8,N/A,,Unknown,300,2013-01-29 04:00:00
9:00 PM,44.1,42.1,93,30.07,-9999.0,WNW,35.7,-,N/A,,Unknown,300,2013-01-29 05:00:00
10:00 PM,44,43,94,30.08,,WNW,34.5,,,,,300,2013-01-29 06:00:00
10:00 PM,44.1,42.8,95,30.08,-9999.0,WNW,34.5,-,N/A,,Unknown,300,2013-01-29 06:00:00
11:00 PM,43.9,42.8,96,30.10,-9999.0,WNW,32.2,-,0.04,,Unknown,300,2013-01-29 07:00:00